Regional Weather Roundup
Issued by NWS Grand Forks, ND

Home | Current Version | Previous Version | Graphics & Text | Print | Product List | Glossary On
Versions: 1 2 3 4 5 6 7 8 9 10 11 12 13 14 15 16 17 18 19 20 21 22 23 24 25 26 27 28 29 30 31 32 33 34 35 36 37 38 39 40 41 42 43 44 45 46 47 48 49 50
398
ASUS43 KFGF 161810
RWRFGF
PRAIRIE TO PINES  WEATHER ROUNDUP
NATIONAL WEATHER SERVICE EASTERN NORTH DAKOTA/GRAND FORKS ND
1200 PM CST SAT DEC 16 2017

 **SATELLITE DATA USED TO AUGMENT SKY COVER AT AUTOMATED STATIONS**
 *****  WEATHER ACROSS EASTERN NORTH DAKOTA  *****

CITY           SKY/WX    TMP DP  RH WIND       PRES   REMARKS
GRAND FORKS    CLOUDY    26  22  84 W7        29.89R WCI  18
6HR MIN TEMP:  21; 6HR MAX TEMP:  26;

GRAND FRKS AFB CLOUDY    27  22  82 NW7       29.88F WCI  20
DEVILS LAKE    CLOUDY    31  27  85 NW12      29.88R WCI  22
6HR MIN TEMP:  22; 6HR MAX TEMP:  31;

FARGO          CLOUDY    29  25  85 S6        29.89S WCI  23
WAHPETON ARPT  CLOUDY    30  25  80 CALM      29.91S
$$

 ***** WEATHER ACROSS CENTRAL AND WESTERN NORTH DAKOTA  *****

CITY           SKY/WX    TMP DP  RH WIND       PRES   REMARKS
BISMARCK       PTSUNNY   39  33  79 NW12      29.93R
6HR MIN TEMP:  33; 6HR MAX TEMP:  39;

MINOT          FAIR      37  28  70 W15       29.89R
6HR MIN TEMP:  35; 6HR MAX TEMP:  38;

JAMESTOWN      FAIR      40  33  76 NW12      29.87R
6HR MIN TEMP:  32; 6HR MAX TEMP:  40;

MINOT AFB      FAIR      36  28  73 NW13      29.88R
GARRISON         N/A     36  30  79 NW16      29.91R
WILLISTON      FAIR      32  22  66 SW6       29.95S
DICKINSON      FAIR      32  25  75 W14       29.92S WCI  22
6HR MIN TEMP:  27; 6HR MAX TEMP:  32;

HETTINGER      FAIR      34  25  69 NW15      29.95S WCI  24
6HR MIN TEMP:  26; 6HR MAX TEMP:  34;

$$

 *****  OTHER AIRPORT OBSERVATIONS IN OUR AREA  *****

CITY           SKY/WX    TMP DP  RH WIND       PRES   REMARKS
WALHALLA       FAIR      21  21 100 CALM      29.87S
GRAFTON AIRPOR CLOUDY    23  21  93 SW6       29.91S WCI  16
VALLEY CITY AR FAIR      37  37 100 NW10      29.88R
CANDO          MOCLDY    32  30  93 NW8G14    29.90R WCI  25
CAVALIER APRT  CLOUDY    21  21 100 S6        29.88R WCI  14
GWINNER          N/A     36  34  93 NW6       29.88S
SHEYENNE NWR     N/A     32  31  96 CALM      29.95S
ROLLA          CLOUDY    28  27  93 NW6       29.85S WCI  22
 ***** THE ABOVE OBSERVATIONS ARE NON NWS ARE NOT QUALITY
       CONTROLLED AND MAY MIS-REPORT RAIN FOR SNOW...
$$

  *****  WEATHER ACROSS NORTHERN MINNESOTA  *****

CITY           SKY/WX    TMP DP  RH WIND       PRES   REMARKS
FLAG ISLAND    CLOUDY     7   1  78 E8        29.91S WCI  -6
WARROAD        LGT SNOW  10   7  85 E7        29.91R VSB 1   WCI   0
ROSEAU         LGT SNOW  12   9  85 E6        29.90R WCI   3
HALLOCK        CLOUDY    18  16  93 SE7       29.89S WCI   8
THF RVR FALLS  CLOUDY    22  18  85 SE5       29.88S WCI  16
6HR MIN TEMP:  16; 6HR MAX TEMP:  22; 6HR PCP: TRACE;

BAUDETTE       CLOUDY     7   3  84 E12       29.90F WCI  -8
6HR MIN TEMP:   5; 6HR MAX TEMP:   7; 6HR PCP: TRACE;

WASKISH        CLOUDY    14  12  92 E5        29.90R WCI   6
CROOKSTON      CLOUDY    27  23  86 SW6       29.89F WCI  20
STEPHEN NDAWN    N/A     21  18  86 S5          N/A  WCI  15
GREENBUSH NDAW   N/A     16  12  86 SE3         N/A
$$
  *****  WEATHER ACROSS CENTRAL AND WEST MINNESOTA  *****

CITY           SKY/WX    TMP DP  RH WIND       PRES   REMARKS
FOSSTON        CLOUDY    23  18  80 S7        29.87S WCI  15
BEMIDJI        CLOUDY    19  15  84 SE7       29.88S WCI  10
6HR MIN TEMP:  15; 6HR MAX TEMP:  19;

PARK RAPIDS    CLOUDY    20  17  88 SE5       29.88R WCI  13
6HR MIN TEMP:  19; 6HR MAX TEMP:  21; 6HR PCP: TRACE;

ELBOW LAKE     CLOUDY    27  24  89 SE3       29.89S FOG
6HR MIN TEMP:  24; 6HR MAX TEMP:  27;

WADENA         CLOUDY    21  19  93 CALM      29.88R
DETROIT LAKES  CLOUDY    27  23  86 SE5       29.88S WCI  21
MOORHEAD       CLOUDY    27  23  86 CALM      29.90F
FERGUS FALLS   PTSUNNY   27  23  86 CALM      29.92S
MORRIS MN      PTSUNNY   28  27  93 CALM      29.88R
STAPLES        CLOUDY    21  18  86 CALM      29.89R
$$
  *****  WEATHER ELSEWHERE ACROSS MINNESOTA  *****

CITY           SKY/WX    TMP DP  RH WIND       PRES   REMARKS
DULUTH         LGT SNOW  19  13  77 E17       29.91S WCI   4
6HR MIN TEMP:  16; 6HR MAX TEMP:  19; 6HR PCP:  0.01;

INTRNTL FALLS  LGT SNOW   5  -1  76 E10       29.94S VSB 3/4 WCI -10
6HR MIN TEMP:   0; 6HR MAX TEMP:   5; 6HR PCP:  0.02;

ELY            LGT SNOW   7   3  85 N3        29.94S
CLOQUET        CLOUDY    19   9  63 E9        29.91R WCI   9
WHEATON        CLOUDY    30  27  86 CALM      29.92R
BRAINERD       CLOUDY    24  17  74 NE5       29.90R WCI  18
6HR MIN TEMP:  20; 6HR MAX TEMP:  24; 6HR PCP: TRACE;

HIBBING        CLOUDY    19  15  84 SE12      29.91S WCI   7
6HR MIN TEMP:  10; 6HR MAX TEMP:  19; 6HR PCP: TRACE;

ALEXANDRIA     CLOUDY    26  23  88 CALM      29.88S FOG
6HR MIN TEMP:  22; 6HR MAX TEMP:  26;

SAINT CLOUD    CLOUDY    25  20  81 N5        29.90R WCI  19
6HR MIN TEMP:  21; 6HR MAX TEMP:  25;

MINNEAPOLIS    CLOUDY    28  25  88 SE3       29.89R
6HR MIN TEMP:  25; 6HR MAX TEMP:  28;

$$

  *****  WEATHER ACROSS SOUTH DAKOTA  *****

CITY           SKY/WX    TMP DP  RH WIND       PRES   REMARKS
SIOUX FALLS    PTSUNNY   43  33  68 N12       29.87R
6HR MIN TEMP:  30; 6HR MAX TEMP:  44;

BROOKINGS      FAIR      40  32  73 NW15      29.87
WATERTOWN      FAIR      38  34  85 NW8       29.86S
6HR MIN TEMP:  30; 6HR MAX TEMP:  39; 6HR PCP: TRACE;

HURON          CLOUDY    41  34  76 NW12      29.91R
6HR MIN TEMP:  26; 6HR MAX TEMP:  41;

SISSETON         N/A     37  31  78 N7        29.89R
ABERDEEN       CLOUDY    41  34  76 N14       29.91R
6HR MIN TEMP:  34; 6HR MAX TEMP:  41; 6HR PCP:  0.01;

MITCHELL       PTSUNNY   42  33  70 N12       29.90F
PIERRE         FAIR      42  33  70 N16       29.94R
6HR MIN TEMP:  33; 6HR MAX TEMP:  42;

MOBRIDGE       FAIR      40  31  70 NW9       29.91R
RAPID CITY     CLOUDY    36  32  85 N17       29.95F
6HR MIN TEMP:  34; 6HR MAX TEMP:  40; 6HR PCP: TRACE;

$$

  *****  SOME WEATHER IN NEARBY STATES *****

CITY           SKY/WX    TMP DP  RH WIND       PRES   REMARKS
GLASGOW MT     NOT AVBL
GREAT FALLS MT CLOUDY    30  26  85 VRB3      30.01R
6HR MIN TEMP:  28; 6HR MAX TEMP:  30; 6HR PCP:  0.02;

CHEYENNE WY    FAIR      36  17  46 N12       29.85F
6HR MIN TEMP:  34; 6HR MAX TEMP:  44;

SCOTTSBLUFF NE FAIR      42  24  49 NE10      29.90R
6HR MIN TEMP:  31; 6HR MAX TEMP:  42;

OMAHA NE       PTSUNNY   48  25  40 N6        29.86R
6HR MIN TEMP:  29; 6HR MAX TEMP:  48;

DES MOINES IA  PTSUNNY   48  25  40 W3        29.83F
6HR MIN TEMP:  34; 6HR MAX TEMP:  48;

DAVENPORT IA   FAIR      46  26  45 W10       29.88S
6HR MIN TEMP:  32; 6HR MAX TEMP:  47;

CHICAGO IL     FAIR      43  25  49 SW8       29.89S
6HR MIN TEMP:  34; 6HR MAX TEMP:  43;

EAU CLAIRE WI  CLOUDY    23  17  78 E9        29.91R WCI  13
6HR MIN TEMP:  21; 6HR MAX TEMP:  23;

LA CROSSE WI   FAIR      31  23  72 E9        29.88S WCI  23
6HR MIN TEMP:  27; 6HR MAX TEMP:  33;

$$

  *****  SOME NATIONAL WEATHER *****

CITY           SKY/WX    TMP DP  RH WIND       PRES   REMARKS
LA GUARDIA NY  PTSUNNY   38  21  50 W16G22    29.98F
6HR MIN TEMP:  28; 6HR MAX TEMP:  38;

RALEIGH NC     FAIR      47  22  37 W6        30.22F
6HR MIN TEMP:  25; 6HR MAX TEMP:  47;

ATLANTA GA     PTSUNNY   50  28  42 NW9       30.27F
6HR MIN TEMP:  27; 6HR MAX TEMP:  50;

NEW ORLEANS LA CLOUDY    52  40  63 NE8       30.25F
6HR MIN TEMP:  46; 6HR MAX TEMP:  52;

OKLAHOMA CITY  FAIR      55  27  34 S24       29.98F
6HR MIN TEMP:  32; 6HR MAX TEMP:  55;

ALBUQUERQUE NM FAIR      37  18  46 S12       29.89F
6HR MIN TEMP:  24; 6HR MAX TEMP:  37;

SALT LAKE CITY LGT SNOW  33  31  92 NW10      29.91S VSB 1   WCI  25
6HR MIN TEMP:  30; 6HR MAX TEMP:  34; 6HR PCP:  0.01;

LOS ANGELES CA FAIR      63  50  62 E6        29.72F
6HR MIN TEMP:  53; 6HR MAX TEMP:  63; 6HR PCP: TRACE;

BOISE ID       FAIR



USA.gov is the U.S. government's official web portal to all federal, state and local government web resources and services.